www.pogodaiklimat.ru

ПОГОДА в Шелагонцах

  • Прогноз погоды в Шелагонцах
  • Монитор погоды в Шелагонцах
  • Климат города

АРХИВ ПОГОДЫ в Шелагонцах

Время (UTC), дата Ветер
(напр.,м/с)
 
Видим.   Явления Облачность Т
(С)
Тd
(С)
f
(%)
Тe
(С)
Тes
(С)
Комфортность P
(гПа)
Po
(гПа)
Тmin
(С)
Tmax
(С)
R
(мм)
S
(см)
03 9.01 С 5 50 км позёмок {снег, метель} 10/0
[As op]
-13.2 -17.5 70 -22 -22 1022.5 991.4
06 9.01 СЗ 5 50 км позёмок {снег, метель} 10/0
[Ac As Ci fib]
-14.2 -19.6 64 -23 -23 1023.8 992.3
09 9.01 З 3 50 км {метель} 9/0
[Ac As]
-16.2 -20.4 70 -23 -23 1025.4 993.9
12 9.01 З 3 50 км {метель} 9/0
[Ac As]
-16.2 -20.4 70 -23 -23 1025.4 993.9
15 9.01 З 3 50 км 9/0
[Ac lent Ci fib]
-18.9 -23.0 70 -26 -26 1027.3 995.3
18 9.01 СЗ 3 50 км 9/0
[Ac lent Ci fib]
-18.3 -22.4 70 -26 -26 1027.5 995.6
21 9.01 СЗ 3 50 км 8/0
[Ac lent]
-19.0 -23.1 70 -26 -26 1029.9 997.8
00 10.01 СЗ 3 50 км ясно -20.5 -25.5 64 -28 -28 1029.3 997.1 -20.8 33
03 10.01 З 3 50 км 4/0
[Ac lent Cc]
-21.3 -24.6 75 -29 -29 1029.4 997.1 -21.6
06 10.01 З 3 50 км 6/0
[Ac lent]
-20.5 -24.6 70 -28 -28 1031.0 998.8
09 10.01 З 1 50 км 3/0
[Ac lent]
-21.0 -25.9 65 -24 -24 1032.3 999.9
12 10.01 ЮЗ 1 50 км 3/0
[Ci fib]
-23.6 -27.6 70 -27 -27 1034.5 1001.6 -20.4
15 10.01 З 3 50 км ясно -31.5 -35.2 70 -41 -41 опасность
обморожения
1036.6 1002.6
18 10.01 штиль 0 50 км 5/0
[Cs]
-36.8 -40.4 69 -37 -37 опасность
обморожения
1038.4 1003.6
21 10.01 штиль 0 50 км 8/0
[Ac lent Cs]
-37.2 -40.8 69 -37 -37 опасность
обморожения
1038.0 1003.3
00 11.01 штиль 0 50 км 4/0
[Ac lent Cs]
-39.0 -42.5 69 -39 -39 опасность
обморожения
1038.9 1003.8 -40.0 33
03 11.01 штиль 0 50 км 3/0
[Ac lent]
-41.5 -45.0 69 -42 -42 опасность
обморожения
1040.1 1004.5 -41.8
06 11.01 штиль 0 50 км 3/0
[Ac lent Ci fib]
-40.1 -43.4 70 -40 -40 опасность
обморожения
1040.6 1005.3
09 11.01 штиль 0 50 км ясно -42.7 -46.2 68 -43 -43 опасность
обморожения
1042.3 1006.5
21 11.01 штиль 0 50 км ясно -47.0 -50.2 69 -47 -47 опасность
обморожения
1046.2 1009.6
00 12.01 штиль 0 50 км ясно -47.1 -50.2 70 -47 -47 опасность
обморожения
1046.9 1010.3 -47.6 33
03 12.01 штиль 0 50 км ясно -47.1 -50.2 70 -47 -47 опасность
обморожения
1047.5 1010.9
06 12.01 ЮЗ 1 50 км 1/0
[Ac lent]
-44.5 -47.6 71 -50 -50 опасность
обморожения
1046.9 1010.6
09 12.01 штиль 0 50 км ясно -46.1 -49.2 71 -46 -46 опасность
обморожения
1048.1 1011.7
12 12.01 штиль 0 50 км ясно -46.4 -49.2 73 -46 -46 опасность
обморожения
1048.0 1011.6 -44.5
15 12.01 штиль 0 50 км ясно -47.2 -50.2 71 -47 -47 опасность
обморожения
1048.7 1012.1
18 12.01 ЮЗ 3 50 км ясно -45.8 -49.2 68 -59 -59 опасность
обморожения
1048.4 1012.0
21 12.01 ЮЗ 1 50 км ясно -46.4 -49.2 73 -52 -52 опасность
обморожения
1050.5 1013.8
00 13.01 штиль 0 50 км ясно -47.2 -50.2 71 -47 -47 опасность
обморожения
1050.5 1013.8 -47.6 33
03 13.01 штиль 0 50 км ясно -48.8 -52.4 66 -49 -49 опасность
обморожения
1029.9 1014.0 -49.2
06 13.01 штиль 0 50 км ясно -45.0 -48.4 68 -45 -45 опасность
обморожения
1019.6 1013.2
09 13.01 штиль 0 50 км ясно -47.2 -50.2 71 -47 -47 опасность
обморожения
1050.3 1013.6
12 13.01 штиль 0 50 км ясно -48.0 -51.2 69 -48 -48 опасность
обморожения
1051.1 1014.2 -45.0
15 13.01 штиль 0 50 км ясно -47.5 -51.2 65 -48 -48 опасность
обморожения
1051.5 1014.6
18 13.01 штиль 0 50 км ясно -47.2 -50.2 71 -47 -47 опасность
обморожения
1051.4 1014.7
21 13.01 штиль 0 50 км ясно -48.2 -51.2 71 -48 -48 опасность
обморожения
1051.7 1014.7
00 14.01 штиль 0 50 км ясно -47.6 -51.2 66 -48 -48 опасность
обморожения
1051.8 1014.9 -48.4 33
03 14.01 штиль 0 50 км 1/0
[Ac trans]
-47.4 -50.2 73 -47 -47 опасность
обморожения
1052.4 1015.6
06 14.01 штиль 0 50 км ясно -44.6 -47.6 72 -45 -45 опасность
обморожения
1016.0
09 14.01 штиль 0 50 км 3/0
[Cc]
-44.8 -48.4 67 -45 -45 опасность
обморожения
1052.6 1016.1
12 14.01 штиль 0 50 км ясно -44.4 -47.6 70 -44 -44 опасность
обморожения
1052.7 1016.4 -44.4
15 14.01 штиль 0 50 км ясно -44.0 -47.6 67 -44 -44 опасность
обморожения
1052.9 1016.6
18 14.01 штиль 0 50 км ясно -44.4 -47.6 70 -44 -44 опасность
обморожения
1052.8 1016.5
21 14.01 штиль 0 50 км ясно -44.1 -47.6 68 -44 -44 опасность
обморожения
1052.8 1016.5
00 15.01 штиль 0 20 км слабый снег 10/0
[Cs]
-43.7 -46.9 70 -44 -44 опасность
обморожения
1052.0 1015.7 -44.9 0.0 33
03 15.01 З 1 1000 м туман местами {снег} ?/? -42.6 -46.2 68 -48 -48 опасность
обморожения
1051.8 1015.6
06 15.01 СЗ 1 1000 м туман местами {снег} ?/? -41.8 -45.0 71 -47 -47 опасность
обморожения
1051.1 1015.2
09 15.01 ЮЗ 3 10 км туман на расстоянии ясно -42.0 -45.6 68 -54 -54 опасность
обморожения
1050.5 1014.6
12 15.01 ЮЗ 3 20 км ледяные иглы {снег, туман} ясно -41.6 -45.0 69 -54 -54 опасность
обморожения
1050.4 1014.5 -41.6
15 15.01 ЮЗ 3 20 км ледяные иглы {снег} ясно -40.4 -43.9 69 -52 -52 опасность
обморожения
1049.1 1013.5
18 15.01 ЮЗ 3 50 км {снег} 10/0
[Cs]
-40.2 -43.6 70 -52 -52 опасность
обморожения
1048.6 1013.0
21 15.01 ЮЗ 3 20 км слабый снег 10/0
[Cs]
-40.6 -43.9 70 -52 -52 опасность
обморожения
1048.8 1012.6
00 16.01 Ю 3 20 км слабый снег 10/0
[Cs]
-40.2 -43.3 72 -52 -52 опасность
обморожения
1047.0 1011.5 -41.9 33
03 16.01 Ю 3 2000 м туман местами {снег} ?/? -40.4 -43.9 69 -52 -52 опасность
обморожения
1046.7 1011.2
06 16.01 ЮЗ 3 500 м туман {снег} ?/? -40.4 -43.9 69 -52 -52 опасность
обморожения
1045.0 1009.5
09 16.01 ЮЗ 1 1000 м туман ясно -40.8 -44.4 68 -46 -46 опасность
обморожения
1044.5 1009.0

 

Местоположение метеостанции Шелагонцы (Якутия, Россия): широта 66.25 долгота 114.20 высота над уровнем моря 236 м.

В архиве по умолчанию представлена погода в Шелагонцах за последнюю неделю. Архивные данные за месяц целиком и за предыдущие месяцы, начиная с января 2011 года, Вы можете получить, выбрав интересующий диапазон дат из раскрывающегося списка и нажав кнопку "Ввод!".

Внимание! Время в таблицах - всемирное. Для получения местного времени необходимо прибавить поправку, которая в Шелагонцах равна 9 ч.

Ветер - указаны скорость ветра в м/с - средняя за 10 мин, порывы в срок и между сроками (в фигурных скобках) и направление, откуда дует ветер: С - северный, СВ - северо-восточный, В - восточный, ЮВ - юго-восточный, Ю - южный, ЮЗ - юго-западный, З - западный, СЗ - северо-западный.
Видимость - горизонтальная дальность видимости в метрах или километрах. При видимости от 1 до 10 км при отсутствии осадков обычно наблюдается дымка, при ухудшении видимости до 1 км и менее - туман. В сухую погоду видимость может ухудшаться дымом, пылью или мглою.
Явления - указаны атмосферные явления, наблюдавшиеся в срок или в последний час перед сроком; фигурными скобками обозначены явления, наблюдавшиеся между сроками (за 1-3 часа до срока); квадратными скобками обозначены град или гололедные отложения с указанием их диаметра в мм.
Облачность - указаны через наклонную черту общая и нижняя облачность в баллах и высота нижней границы облаков в метрах; квадратными скобками обозначены формы облаков: Ci - перистые, Cs - перисто-слоистые, Cc - перисто-кучевые, Ac - высококучевые, As - высокослоистые, Sc - слоисто-кучевые, Ns - слоисто-дождевые, Cu - кучевые, Cb - кучево-дождевые. Подробнее классификацию облаков см. в Атласе облаков (PDF).
T - Температура воздуха - температура, измеренная на высоте 2 м над землей.
Td - Температура точки росы - температура, при понижении до которой содержащийся в воздухе водяной пар достигнет насыщения.
f - Относительная влажность воздуха - влажноcть воздуха, измеренная на высоте 2 м над землей.
Te - Эффективная температура - температура, которую ощущает одетый по сезону человек в тени. Характеристика душности погоды. При расчете учитывается влияние влажности воздуха и скорости ветра на теплоощущения человека.
Tes - Эффективная температура на солнце - температура, которую ощущает человек, с поправкой на солнечный нагрев. Характеристика знойности погоды. Зависит от высоты солнца над горизонтом, облачности и скорости ветра. Ночью, в пасмурную погоду, а также при ветре 12 м/с и более поправка равна нулю.
P - Атмосферное давление - приведенное к уровню моря атмосферное давление.
Po - Атмосферное давление - измеренное на уровне метеостанции атмосферное давление.
Tmin - Минимальная температура - минимум температуры воздуха на высоте 2 м над землей.
Tmax - Максимальная температура - максимум температуры воздуха на высоте 2 м над землей.
R - Количество осадков - Количество выпавших осадков, мм. При наведении курсора мыши на число - период времени, за который выпало указанное количество осадков.
S - Снежный покров - Высота снежного покрова, см. При наведении курсора мыши на число - состояние снежного покрова и степень покрытия местности в баллах.